DF7PN-WX Weather Reports


time (UTC)temp
C
wind
direction
speed
KPH
gust
KPH
rain 1hr
cm
rain 24hr
cm
rain mn
cm
humidity
%
barometer
mb
20260507013649 9 315 0.0 1.6 0.00 0.00 0.00 10 1011.5
20260507013148 9 315 0.0 1.6 0.00 0.00 0.00 10 1011.4
20260507012648 9 315 1.6 3.2 0.00 0.00 0.00 10 1011.4
20260507012148 8 315 1.6 3.2 0.00 0.00 0.00 10 1011.4
20260507011648 8 315 3.2 6.4 0.00 0.00 0.00 10 1011.4
20260507011148 8 315 3.2 6.4 0.00 0.00 0.00 10 1011.3
20260507010648 9 315 3.2 6.4 0.00 0.00 0.00 10 1011.3
20260507010148 9 315 4.8 9.7 0.00 0.00 0.00 10 1011.2
20260507005648 9 315 4.8 9.7 0.00 0.00 0.00 10 1011.3
20260507005148 9 315 4.8 9.7 0.00 0.00 0.00 10 1011.2
20260507004648 9 312 0.0 1.6 0.00 0.00 0.00 10 1011.2
20260507004148 9 312 0.0 1.6 0.00 0.00 0.00 10 1011.2
20260507003648 8 312 0.0 1.6 0.00 0.00 0.00 10 1011.2
20260507003147 8 312 1.6 3.2 0.00 0.00 0.00 10 1011.2
20260507002647 8 312 1.6 3.2 0.00 0.00 0.00 10 1011.2
20260507002147 9 312 3.2 6.4 0.00 0.00 0.00 10 1011.2
20260507001647 9 312 4.8 9.7 0.00 0.00 0.00 10 1011.2
20260507001147 8 312 4.8 9.7 0.00 0.00 0.00 10 1011.2
20260507000647 9 312 4.8 9.7 0.00 0.00 0.00 10 1011.1
20260507000147 9 307 0.0 3.2 0.00 0.00 0.00 10 1011.1
20260506235647 9 307 0.0 3.2 0.00 0.00 0.00 10 1011.1
20260506235147 8 307 0.0 3.2 0.00 0.00 0.00 10 1011.1
20260506234647 9 307 1.6 4.8 0.00 0.00 0.00 10 1011.1
20260506234147 9 307 1.6 4.8 0.00 0.00 0.00 10 1011.1
20260506233647 9 307 1.6 4.8 0.00 0.00 0.00 10 1011.0
20260506233147 9 307 3.2 8.0 0.00 0.00 0.00 10 1011.0
20260506232647 9 307 4.8 11.3 0.00 0.00 0.00 10 1011.0
20260506232147 9 307 4.8 11.3 0.00 0.00 0.00 10 1011.0
20260506231647 9 307 4.8 11.3 0.00 0.00 0.00 10 1011.0
20260506231147 9 307 0.0 3.2 0.00 0.00 0.00 10 1011.0
20260506230646 9 307 0.0 3.2 0.00 0.00 0.00 10 1011.0
20260506230146 9 307 1.6 4.8 0.00 0.00 0.00 10 1010.9
20260506225646 9 307 1.6 4.8 0.00 0.00 0.00 10 1010.8
20260506225146 9 307 3.2 8.0 0.00 0.00 0.00 10 1010.8
20260506224646 9 307 4.8 11.3 0.00 0.00 0.00 10 1010.8
20260506224146 9 307 4.8 11.3 0.00 0.00 0.00 10 1010.7
20260506223646 9 307 4.8 11.3 0.00 0.00 0.00 10 1010.8
20260506223146 9 307 0.0 3.2 0.00 0.00 0.00 10 1010.7
20260506222646 9 307 0.0 3.2 0.00 0.00 0.00 10 1010.7
20260506222146 9 307 0.0 3.2 0.00 0.00 0.00 10 1010.7
20260506221646 9 307 1.6 6.4 0.00 0.00 0.00 10 1010.6
20260506221146 9 307 1.6 6.4 0.00 0.00 0.00 10 1010.6
20260506220646 9 307 1.6 6.4 0.00 0.00 0.00 10 1010.5
20260506220146 9 307 3.2 9.7 0.00 0.00 0.00 10 1010.5
20260506215646 9 307 3.2 9.7 0.00 0.00 0.00 10 1010.5
20260506215145 9 307 3.2 9.7 0.00 0.00 0.00 10 1010.6
20260506214645 9 307 6.4 14.5 0.00 0.00 0.00 10 1010.5
20260506214145 9 307 6.4 14.5 0.00 0.00 0.00 10 1010.4
20260506213645 9 307 6.4 14.5 0.00 0.00 0.00 10 1010.4
20260506213145 9 296 0.0 3.2 0.00 0.00 0.00 10 1010.4
20260506212645 9 296 0.0 3.2 0.00 0.00 0.00 10 1010.3
20260506212145 9 296 0.0 3.2 0.00 0.00 0.00 10 1010.3
20260506211645 9 296 1.6 4.8 0.00 0.00 0.00 10 1010.3
20260506211145 9 296 1.6 4.8 0.00 0.00 0.00 10 1010.2
20260506210645 9 296 1.6 4.8 0.00 0.00 0.00 10 1010.2
20260506210144 9 296 3.2 8.0 0.00 0.00 0.00 10 1010.2
20260506205644 9 296 3.2 8.0 0.00 0.00 0.00 10 1010.3
20260506205144 9 296 4.8 12.9 0.00 0.00 0.00 10 1010.2
20260506204644 9 296 4.8 12.9 0.00 0.00 0.00 10 1010.3
20260506204144 10 296 4.8 12.9 0.00 0.00 0.00 10 1010.2
20260506203644 10 305 0.0 3.2 0.00 0.00 0.00 10 1010.1
20260506203144 10 305 0.0 3.2 0.00 0.00 0.00 10 1010.1
20260506202644 10 305 1.6 4.8 0.00 0.00 0.00 10 1010.1
20260506202144 10 305 3.2 8.0 0.00 0.00 0.00 10 1010.0
20260506201644 10 305 3.2 8.0 0.00 0.00 0.00 10 1010.0
20260506201143 10 305 3.2 8.0 0.00 0.00 0.00 10 1009.9
20260506200643 10 305 4.8 12.9 0.00 0.00 0.00 10 1009.8
20260506200143 10 305 4.8 12.9 0.00 0.00 0.00 10 1009.8
20260506195643 10 305 4.8 12.9 0.00 0.00 0.00 10 1009.7
20260506195143 10 309 0.0 3.2 0.00 0.00 0.00 10 1009.6
20260506194643 10 309 0.0 3.2 0.00 0.00 0.00 10 1009.6
20260506194143 10 309 1.6 4.8 0.00 0.00 0.00 10 1009.6
20260506193643 10 309 1.6 4.8 0.00 0.00 0.00 10 1009.5
20260506193143 10 309 1.6 4.8 0.00 0.00 0.00 10 1009.5
20260506192643 10 309 3.2 8.0 0.00 0.00 0.00 10 1009.4
20260506192143 10 309 3.2 8.0 0.00 0.00 0.00 10 1009.4
20260506191643 10 309 3.2 8.0 0.00 0.00 0.00 10 1009.3
20260506191143 10 309 4.8 11.3 0.00 0.00 0.00 10 1009.2
20260506190643 10 309 4.8 11.3 0.00 0.00 0.00 10 1009.1
20260506190143 10 309 4.8 11.3 0.00 0.00 0.00 10 1008.9
20260506185642 10 309 8.0 17.7 0.00 0.00 0.00 10 1008.8
20260506185142 11 309 8.0 17.7 0.00 0.00 0.00 10 1008.7
20260506184642 10 306 0.0 3.2 0.00 0.00 0.00 10 1008.6
20260506184142 10 306 0.0 3.2 0.00 0.00 0.00 10 1008.5
20260506183642 11 306 0.0 3.2 0.00 0.00 0.00 10 1008.4
20260506183142 11 306 1.6 6.4 0.00 0.00 0.00 10 1008.3
20260506182642 11 306 1.6 6.4 0.00 0.00 0.00 10 1008.4
20260506182142 11 306 1.6 6.4 0.00 0.00 0.00 10 1008.2
20260506181642 11 306 3.2 9.7 0.00 0.00 0.00 10 1008.2
20260506181142 11 306 6.4 14.5 0.00 0.00 0.00 10 1008.1
20260506180642 11 306 6.4 14.5 0.00 0.00 0.00 10 1008.2
20260506180142 11 306 6.4 14.5 0.00 0.00 0.00 10 1008.2
20260506175642 11 306 0.0 3.2 0.00 0.00 0.00 10 1008.1
20260506175141 11 306 1.6 6.4 0.00 0.00 0.00 10 1008.0
20260506174641 11 306 3.2 9.7 0.00 0.00 0.00 10 1007.9
20260506174141 12 306 3.2 9.7 0.00 0.00 0.00 10 1007.9
20260506173641 12 306 6.4 14.5 0.00 0.00 0.00 10 1007.9
20260506173141 12 318 0.0 3.2 0.00 0.00 0.00 10 1007.9
20260506172641 12 318 0.0 3.2 0.00 0.00 0.00 10 1007.8
20260506172141 12 318 1.6 4.8 0.00 0.00 0.00 10 1007.7
20260506171641 12 318 1.6 4.8 0.00 0.00 0.00 10 1007.8
20260506171141 12 318 3.2 8.0 0.00 0.00 0.00 10 1007.9
20260506170641 12 318 3.2 8.0 0.00 0.00 0.00 10 1007.7
20260506170141 12 318 3.2 8.0 0.00 0.00 0.00 10 1007.7
20260506165641 12 318 6.4 11.3 0.00 0.00 0.00 10 1007.7
20260506165141 12 318 6.4 11.3 0.00 0.00 0.00 10 1007.7
20260506164641 12 323 0.0 1.6 0.00 0.00 0.00 10 1007.7
20260506164141 12 323 0.0 1.6 0.00 0.00 0.00 10 1007.7
20260506163641 12 323 0.0 1.6 0.00 0.00 0.00 10 1007.6
20260506163140 12 323 1.6 3.2 0.00 0.00 0.00 10 1007.6
20260506162640 12 323 3.2 4.8 0.00 0.00 0.00 10 1007.5
20260506162140 12 323 3.2 4.8 0.00 0.00 0.00 10 1007.5
20260506161640 12 323 4.8 8.0 0.00 0.00 0.00 10 1007.6
20260506161140 12 323 4.8 8.0 0.00 0.00 0.00 10 1007.5
20260506160640 12 323 4.8 8.0 0.00 0.00 0.00 10 1007.6
20260506160140 12 323 8.0 11.3 0.00 0.00 0.00 10 1007.6
20260506155640 12 323 8.0 11.3 0.00 0.00 0.00 10 1007.5
20260506155140 12 323 8.0 11.3 0.00 0.00 0.00 10 1007.4
20260506154640 12 316 0.0 1.6 0.00 0.00 0.00 10 1007.4
20260506154140 12 316 0.0 1.6 0.00 0.00 0.00 10 1007.3
20260506153640 12 316 1.6 3.2 0.00 0.00 0.00 10 1007.3
20260506153140 12 316 1.6 3.2 0.00 0.00 0.00 10 1007.3
20260506152640 13 316 3.2 4.8 0.00 0.00 0.00 10 1007.2
20260506152140 13 316 3.2 4.8 0.00 0.00 0.00 10 1007.2
20260506151639 14 316 6.4 8.0 0.00 0.00 0.00 10 1007.1
20260506151139 14 316 9.7 11.3 0.00 0.00 0.00 10 1007.0
20260506150639 15 316 9.7 11.3 0.00 0.00 0.00 10 1006.9
20260506150139 15 309 0.0 1.6 0.00 0.00 0.00 97 1006.8
20260506145639 15 309 0.0 1.6 0.00 0.00 0.00 97 1006.8
20260506145139 15 309 0.0 1.6 0.00 0.00 0.00 99 1006.8
20260506144639 15 309 1.6 3.2 0.00 0.00 0.00 10 1006.9
20260506144139 15 309 3.2 4.8 0.00 0.00 0.00 10 1006.8
20260506143639 15 309 3.2 4.8 0.00 0.00 0.00 99 1006.8
20260506143139 15 309 3.2 4.8 0.00 0.00 0.00 96 1006.8
20260506142639 15 309 6.4 8.0 0.00 0.00 0.00 93 1006.9
20260506142138 15 309 6.4 8.0 0.00 0.00 0.00 88 1006.8
20260506141638 16 309 9.7 12.9 0.00 0.00 0.00 87 1006.9
20260506141138 16 309 9.7 12.9 0.00 0.00 0.00 85 1006.8
20260506140638 16 309 9.7 12.9 0.00 0.00 0.00 80 1006.7
20260506140138 16 309 9.7 12.9 0.00 0.00 0.00 77 1006.7
20260506135638 17 309 9.7 12.9 0.00 0.00 0.00 70 1006.7
20260506135138 17 309 9.7 12.9 0.00 0.00 0.00 70 1006.6
20260506134638 17 309 9.7 12.9 0.00 0.00 0.00 69 1006.6
20260506134138 17 309 9.7 12.9 0.00 0.00 0.00 74 1006.5
20260506133638 18 309 9.7 12.9 0.00 0.00 0.00 68 1006.5
20260506133138 19 303 9.7 12.9 0.00 0.00 0.00 64 1006.5
20260506132638 19 303 9.7 12.9 0.00 0.00 0.00 62 1006.4
20260506132138 20 303 9.7 12.9 0.00 0.00 0.00 58 1006.4
20260506131638 20 303 9.7 12.9 0.00 0.00 0.00 59 1006.4
20260506131137 19 303 9.7 12.9 0.00 0.00 0.00 59 1006.4
20260506130637 19 303 9.7 12.9 0.00 0.00 0.00 59 1006.3
20260506130137 19 303 9.7 12.9 0.00 0.00 0.00 63 1006.3
20260506125637 18 255 12.9 16.1 0.00 0.00 0.00 64 1006.3
20260506125137 18 255 12.9 16.1 0.00 0.00 0.00 64 1006.4
20260506124637 17 255 12.9 16.1 0.00 0.00 0.00 66 1006.4
20260506124137 17 255 12.9 16.1 0.00 0.00 0.00 66 1006.4
20260506123637 17 255 12.9 16.1 0.00 0.00 0.00 69 1006.4
20260506123137 17 245 12.9 14.5 0.00 0.00 0.00 68 1006.5
20260506122637 18 245 12.9 14.5 0.00 0.00 0.00 63 1006.4
20260506122137 19 245 12.9 14.5 0.00 0.00 0.00 61 1006.5
20260506121637 19 245 12.9 14.5 0.00 0.00 0.00 62 1006.5
20260506121137 19 245 12.9 14.5 0.00 0.00 0.00 62 1006.5
20260506120637 18 245 12.9 14.5 0.00 0.00 0.00 63 1006.5
20260506120137 18 245 8.0 9.7 0.00 0.00 0.00 64 1006.5
20260506115637 18 245 8.0 9.7 0.00 0.00 0.00 65 1006.5
20260506115137 18 245 8.0 9.7 0.00 0.00 0.00 66 1006.5
20260506114636 17 245 12.9 14.5 0.00 0.00 0.00 67 1006.4
20260506114142 18 245 12.9 14.5 0.00 0.00 0.00 66 1006.5
20260506113636 18 236 1.6 1.6 0.00 0.00 0.00 67 1006.5
20260506113136 18 236 1.6 1.6 0.00 0.00 0.00 66 1006.5
20260506112636 17 236 1.6 1.6 0.00 0.00 0.00 69 1006.6
20260506112136 17 236 3.2 3.2 0.00 0.00 0.00 69 1006.5
20260506111636 17 236 3.2 3.2 0.00 0.00 0.00 66 1006.6
20260506111136 17 236 4.8 6.4 0.00 0.00 0.00 65 1006.5
20260506110636 18 236 8.0 9.7 0.00 0.00 0.00 64 1006.6
20260506110136 18 236 11.3 14.5 0.00 0.00 0.00 64 1006.6
20260506105636 18 236 11.3 14.5 0.00 0.00 0.00 63 1006.7
20260506105136 18 236 11.3 14.5 0.00 0.00 0.00 62 1006.7
20260506104636 18 225 8.0 8.0 0.00 0.00 0.00 61 1006.7
20260506104136 18 225 8.0 8.0 0.00 0.00 0.00 64 1006.7
20260506103635 18 225 8.0 8.0 0.00 0.00 0.00 64 1006.7
20260506103135 18 225 11.3 12.9 0.00 0.00 0.00 66 1006.8
20260506102635 17 225 11.3 12.9 0.00 0.00 0.00 69 1006.8
20260506102135 17 225 11.3 12.9 0.00 0.00 0.00 67 1006.8
20260506101635 18 225 11.3 12.9 0.00 0.00 0.00 64 1006.8
20260506101135 18 225 11.3 12.9 0.00 0.00 0.00 67 1006.8
20260506100635 18 225 11.3 12.9 0.00 0.00 0.00 64 1006.8
20260506100135 18 225 11.3 12.9 0.00 0.00 0.00 66 1006.7
20260506095635 17 225 11.3 12.9 0.00 0.00 0.00 68 1006.7
20260506095135 17 225 11.3 12.9 0.00 0.00 0.00 70 1006.7
20260506094635 17 225 11.3 12.9 0.00 0.00 0.00 70 1006.6
20260506094135 17 226 4.8 4.8 0.00 0.00 0.00 73 1006.5
20260506093635 17 226 4.8 4.8 0.00 0.00 0.00 73 1006.6
20260506093135 17 226 4.8 4.8 0.00 0.00 0.00 73 1006.7
20260506092635 16 226 8.0 8.0 0.00 0.00 0.00 76 1006.6
20260506092134 17 226 8.0 8.0 0.00 0.00 0.00 78 1006.5
20260506091635 16 226 11.3 12.9 0.00 0.00 0.00 76 1006.6
20260506091134 17 226 11.3 12.9 0.00 0.00 0.00 72 1006.7
20260506090634 17 226 11.3 12.9 0.00 0.00 0.00 71 1006.7
20260506090134 17 226 11.3 12.9 0.00 0.00 0.00 72 1006.7
20260506085634 17 226 11.3 12.9 0.00 0.00 0.00 73 1006.7
20260506085134 17 226 11.3 12.9 0.00 0.00 0.00 72 1006.7
20260506084634 17 226 11.3 12.9 0.00 0.00 0.00 73 1006.7
20260506084134 16 226 11.3 12.9 0.00 0.00 0.00 75 1006.7
20260506083634 17 235 1.6 3.2 0.00 0.00 0.00 77 1006.6
20260506083134 16 235 1.6 3.2 0.00 0.00 0.00 77 1006.5
20260506082634 16 235 1.6 3.2 0.00 0.00 0.00 78 1006.4
20260506082134 16 235 3.2 4.8 0.00 0.00 0.00 80 1006.4
20260506081634 16 235 6.4 8.0 0.00 0.00 0.00 81 1006.4
20260506081134 16 235 6.4 8.0 0.00 0.00 0.00 81 1006.4
20260506080633 16 235 9.7 12.9 0.00 0.00 0.00 84 1006.5
20260506080133 15 235 9.7 12.9 0.00 0.00 0.00 83 1006.5
20260506073133 14 222 3.2 3.2 0.00 0.00 0.00 91 1006.5
20260506072633 15 222 4.8 6.4 0.00 0.00 0.00 94 1006.5
20260506072133 15 222 4.8 6.4 0.00 0.00 0.00 94 1006.5
20260506071633 15 222 4.8 6.4 0.00 0.00 0.00 93 1006.6
20260506071133 14 222 8.0 9.7 0.00 0.00 0.00 97 1006.5
20260506070633 14 222 11.3 14.5 0.00 0.00 0.00 96 1006.5
20260506070133 14 222 11.3 14.5 0.00 0.00 0.00 97 1006.4
20260506062132 13 224 6.4 12.9 0.00 0.00 0.00 10 1006.4
20260506061632 13 224 9.7 19.3 0.00 0.00 0.00 10 1006.4
20260506061132 13 224 9.7 19.3 0.00 0.00 0.00 10 1006.3
20260506060632 13 224 9.7 19.3 0.00 0.00 0.00 10 1006.3
20260506060132 13 229 0.0 3.2 0.00 0.00 0.00 10 1006.3
20260506051131 12 229 1.6 6.4 0.00 0.00 0.00 10 1006.2
20260506050631 12 229 3.2 9.7 0.00 0.00 0.00 10 1006.2
20260506050131 12 229 3.2 9.7 0.00 0.00 0.00 10 1006.2
20260506045131 12 229 4.8 14.5 0.00 0.00 0.00 10 1006.2
20260506044631 12 229 8.0 20.9 0.00 0.00 0.00 10 1006.2
20260506044131 12 229 8.0 20.9 0.00 0.00 0.00 10 1006.3
20260506043631 12 229 8.0 20.9 0.00 0.00 0.00 10 1006.4
20260506043130 12 226 0.0 3.2 0.00 0.00 0.00 10 1006.4
20260506042630 12 226 0.0 3.2 0.00 0.00 0.00 10 1006.4
20260506042130 12 226 0.0 3.2 0.00 0.00 0.00 10 1006.5
20260506041630 12 226 1.6 4.8 0.00 0.00 0.00 10 1006.4
20260506041130 12 226 1.6 4.8 0.00 0.00 0.00 10 1006.4
20260506040630 12 226 1.6 4.8 0.00 0.00 0.00 10 1006.5
20260506040130 12 226 3.2 8.0 0.00 0.00 0.00 10 1006.5
20260506035630 12 226 3.2 8.0 0.00 0.00 0.00 10 1006.5
20260506035130 12 226 3.2 8.0 0.00 0.00 0.00 10 1006.6
20260506034630 12 226 6.4 12.9 0.00 0.00 0.00 10 1006.5
20260506034130 12 226 6.4 12.9 0.00 0.00 0.00 10 1006.5
20260506033630 12 226 6.4 12.9 0.00 0.00 0.00 10 1006.5
20260506033130 12 226 9.7 19.3 0.00 0.00 0.00 10 1006.5
20260506032630 12 226 9.7 19.3 0.00 0.00 0.00 10 1006.6
20260506032129 12 226 9.7 19.3 0.00 0.00 0.00 10 1006.6
20260506031629 12 222 0.0 3.2 0.00 0.00 0.00 10 1006.7
20260506031129 12 222 0.0 3.2 0.00 0.00 0.00 10 1006.6
20260506030629 11 222 0.0 3.2 0.00 0.00 0.00 10 1006.7
20260506030129 11 222 1.6 4.8 0.00 0.00 0.00 10 1006.6
20260506025629 11 222 1.6 4.8 0.00 0.00 0.00 10 1006.6
20260506025129 11 222 1.6 4.8 0.00 0.00 0.00 10 1006.6
20260506024629 11 222 3.2 8.0 0.00 0.00 0.00 10 1006.6
20260506024129 11 222 3.2 8.0 0.00 0.00 0.00 10 1006.5
20260506023629 11 222 3.2 8.0 0.00 0.00 0.00 10 1006.5
20260506023129 12 222 4.8 11.3 0.00 0.00 0.00 10 1006.6
20260506022629 12 222 4.8 11.3 0.00 0.00 0.00 10 1006.6
20260506022129 12 222 4.8 11.3 0.00 0.00 0.00 10 1006.6
20260506021628 12 222 8.0 17.7 0.00 0.00 0.00 10 1006.6
20260506021128 12 222 8.0 17.7 0.00 0.00 0.00 10 1006.6
20260506020628 12 211 0.0 4.8 0.00 0.00 0.00 10 1006.7
20260506020128 12 211 0.0 4.8 0.00 0.00 0.00 10 1006.6
20260506015628 12 211 1.6 8.0 0.00 0.00 0.00 10 1006.6
20260506015128 12 211 1.6 8.0 0.00 0.00 0.00 10 1006.7
20260506014628 12 211 3.2 11.3 0.00 0.00 0.00 10 1006.7
20260506014128 12 211 3.2 11.3 0.00 0.00 0.00 10 1006.8